Location: Atherton
(17.2661°S, 145.4859°E)
Time: 01:49:25
(UTC+10:00)

Vanguard 3 - Visible Passes

Search period start: 24 June 2025 00:00
Search period end: 04 July 2025 00:00
Orbit: 508 x 3215 km, 33.4° (Epoch: 22 June)

Date Brightness Start Highest point End Pass type
(mag) Time Alt. Az. Time Alt. Az. Time Alt. Az.
24 Jun 8.5 04:08:30 49° SE 04:08:30 49° SE 04:12:38 10° SE visible
24 Jun 8.6 06:12:42 10° WSW 06:18:00 21° SSW 06:21:49 10° SSE visible
25 Jun 11.4 00:16:58 10° NNW 00:17:56 12° NNW 00:17:56 12° NNW visible
25 Jun 8.3 04:57:11 42° SW 04:57:28 42° SSW 05:03:06 10° SE visible
25 Jun 11.3 22:57:00 10° N 23:01:11 14° NNE 23:01:11 14° NNE visible
26 Jun 9.5 03:41:42 25° SE 03:41:42 25° SE 03:43:57 10° SE visible
26 Jun 8.7 05:45:45 18° WSW 05:48:56 24° SSW 05:53:21 10° SSE visible
26 Jun 11.3 23:45:17 10° NNW 23:48:26 15° NNW 23:48:26 15° NNW visible
27 Jun 8.7 04:30:11 37° S 04:30:11 37° S 04:34:28 10° SE visible
27 Jun 11.2 22:25:09 10° N 22:31:48 16° NNE 22:31:48 16° NNE visible
28 Jun 10.2 03:14:32 14° SE 03:14:32 14° SE 03:15:11 10° SE visible
28 Jun 8.9 05:18:34 25° SW 05:19:47 26° SSW 05:24:53 10° SE visible
28 Jun 11.2 23:13:47 10° NNW 23:19:10 20° N 23:19:10 20° N visible
29 Jun 9.4 04:02:52 27° SSE 04:02:52 27° SSE 04:05:48 10° SE visible
29 Jun 9.0 06:06:54 10° SW 06:11:46 18° SSW 06:15:31 10° SSE visible
29 Jun 11.1 21:53:39 10° N 22:02:39 19° NNE 22:02:39 19° NNE visible
30 Jun 11.4 00:04:23 10° NW 00:06:37 15° NNW 00:06:37 15° NNW visible
30 Jun 9.0 04:51:08 29° SSW 04:51:08 29° SSW 04:56:21 10° SE visible
30 Jun 11.0 22:42:28 10° NNW 22:50:09 24° N 22:50:09 24° N visible
01 Jul 9.9 03:35:20 19° SE 03:35:20 19° SE 03:37:04 10° SE visible
01 Jul 9.1 05:39:21 17° SW 05:42:41 21° SSW 05:47:13 10° SE visible
01 Jul 11.0 21:22:28 10° N 21:33:45 21° NNE 21:33:45 21° NNE visible
01 Jul 11.2 23:33:06 10° NW 23:37:43 21° NNW 23:37:43 21° NNW visible
02 Jul 9.3 04:23:30 28° S 04:23:30 28° S 04:27:48 10° SE visible
02 Jul 10.8 22:11:22 10° NNW 22:21:22 30° N 22:21:22 30° N visible
03 Jul 11.5 00:25:04 10° NW 00:25:21 11° NW 00:25:21 11° NW visible
03 Jul 10.4 03:07:38 13° SE 03:07:38 13° SE 03:08:15 10° SE visible
03 Jul 9.2 05:11:39 23° SSW 05:13:30 24° S 05:18:51 10° SE visible
03 Jul 10.9 20:51:34 10° N 21:04:37 22° NE 21:05:05 22° NE visible
03 Jul 10.9 23:01:59 10° NW 23:09:04 28° NNW 23:09:04 28° NNW visible
